FW4661 Weather Reports


time (UTC)temp
C
wind
direction
speed
KPH
gust
KPH
rain 1hr
cm
rain 24hr
cm
rain mn
cm
humidity
%
barometer
mb
20260509162003 7 0 0.0 0.0 0.00 0.00 0.00 78 1009.3
20260509161003 7 0 0.0 0.0 0.00 0.00 0.00 79 1009.5
20260509160215 7 0 0.0 0.0 0.00 0.00 0.00 79 1009.2
20260509155216 7 0 0.0 0.0 0.00 0.00 0.00 79 1009.3
20260509154003 8 0 0.0 0.0 0.00 0.00 0.00 79 1009.8
20260509153004 8 0 0.0 0.0 0.00 0.00 0.00 79 1009.4
20260509152214 8 0 0.0 0.0 0.00 0.00 0.00 80 1009.5
20260509151004 8 225 0.0 6.4 0.00 0.00 0.00 81 1009.7
20260509150004 8 0 0.0 0.0 0.00 0.00 0.00 82 1009.9
20260509145003 7 357 0.0 14.5 0.00 0.00 0.00 82 1010.1
20260509144213 7 353 0.0 14.5 0.00 0.00 0.00 80 1010.0
20260509143004 7 0 0.0 0.0 0.00 0.00 0.00 80 1010.4
20260509142003 7 0 0.0 0.0 0.00 0.00 0.00 80 1010.5
20260509141003 7 0 0.0 0.0 0.00 0.00 0.00 79 1010.6
20260509140005 7 0 0.0 0.0 0.00 0.00 0.00 79 1010.7
20260509135004 7 0 0.0 0.0 0.00 0.00 0.00 79 1010.7
20260509134003 7 0 0.0 0.0 0.00 0.00 0.00 79 1010.9
20260509133004 7 0 0.0 0.0 0.00 0.00 0.00 79 1011.0
20260509132004 8 0 0.0 0.0 0.00 0.00 0.00 80 1011.1
20260509131003 8 0 0.0 0.0 0.00 0.00 0.00 81 1011.3
20260509130004 8 0 0.0 0.0 0.00 0.00 0.00 81 1011.6
20260509125003 8 0 0.0 0.0 0.00 0.00 0.00 82 1011.5
20260509124214 8 0 0.0 0.0 0.00 0.00 0.00 82 1011.7
20260509123003 8 0 0.0 0.0 0.00 0.00 0.00 82 1011.6
20260509122004 8 0 0.0 0.0 0.00 0.00 0.00 82 1011.7
20260509121003 8 0 0.0 0.0 0.00 0.00 0.00 82 1011.8
20260509120004 8 0 0.0 0.0 0.00 0.00 0.00 82 1011.9
20260509115004 8 0 0.0 0.0 0.00 0.00 0.00 82 1011.7
20260509114004 8 0 0.0 0.0 0.00 0.00 0.00 82 1011.7
20260509113003 8 0 0.0 0.0 0.00 0.00 0.00 82 1012.0
20260509112216 8 0 0.0 0.0 0.00 0.00 0.00 82 1012.0
20260509111003 8 0 0.0 0.0 0.00 0.00 0.00 82 1011.9
20260509110213 8 0 0.0 0.0 0.00 0.00 0.00 82 1012.2
20260509105004 8 0 0.0 0.0 0.00 0.00 0.00 82 1012.0
20260509104004 8 0 0.0 0.0 0.00 0.00 0.00 82 1011.8
20260509103003 8 0 0.0 0.0 0.00 0.00 0.00 82 1011.5
20260509102003 8 0 0.0 0.0 0.00 0.00 0.00 82 1011.7
20260509101004 8 0 0.0 0.0 0.00 0.00 0.00 82 1011.6
20260509100004 8 0 0.0 0.0 0.00 0.00 0.00 81 1011.4
20260509095215 8 0 0.0 0.0 0.00 0.00 0.00 81 1011.5
20260509094004 9 0 0.0 0.0 0.00 0.00 0.00 81 1011.7
20260509093003 9 0 0.0 0.0 0.00 0.00 0.00 82 1011.2
20260509092003 9 0 0.0 0.0 0.00 0.00 0.00 82 1011.3
20260509091214 10 0 0.0 0.0 0.00 0.00 0.00 82 1011.5
20260509090003 10 0 0.0 0.0 0.00 0.00 0.00 81 1011.4
20260509085215 10 0 0.0 0.0 0.00 0.00 0.00 81 1011.5
20260509084004 10 0 0.0 0.0 0.00 0.00 0.00 81 1011.5
20260509083003 10 0 0.0 0.0 0.00 0.00 0.00 81 1011.4
20260509082003 10 0 0.0 0.0 0.00 0.00 0.00 80 1011.2
20260509081214 10 0 0.0 0.0 0.00 0.00 0.00 80 1011.3
20260509080004 10 0 0.0 0.0 0.00 0.00 0.00 80 1011.3
20260509075003 11 0 0.0 0.0 0.00 0.00 0.00 79 1011.4
20260509074004 11 0 0.0 0.0 0.00 0.00 0.00 79 1010.9
20260509073004 11 0 0.0 0.0 0.00 0.00 0.00 78 1010.9
20260509072003 11 0 0.0 0.0 0.00 0.00 0.00 78 1010.8
20260509071004 12 0 0.0 0.0 0.00 0.00 0.00 78 1010.5
20260509070216 12 0 0.0 0.0 0.00 0.00 0.00 78 1010.5
20260509065003 12 0 0.0 0.0 0.00 0.00 0.00 79 1010.5
20260509064003 13 0 0.0 0.0 0.00 0.00 0.00 78 1010.3
20260509063004 13 0 0.0 0.0 0.00 0.00 0.00 78 1010.4
20260509062003 13 360 0.0 1.6 0.00 0.00 0.00 78 1010.4
20260509061003 13 360 0.0 3.2 0.00 0.00 0.00 78 1010.6
20260509060216 13 336 0.0 6.4 0.00 0.00 0.00 78 1010.6
20260509055003 13 0 0.0 0.0 0.00 0.00 0.00 78 1010.4
20260509054004 13 0 0.0 0.0 0.00 0.00 0.00 79 1010.8
20260509053214 13 345 0.0 11.3 0.00 0.00 0.00 78 1010.8
20260509052215 13 354 0.0 22.5 0.00 0.00 0.00 77 1010.8
20260509051216 14 2 0.0 32.2 0.00 0.00 0.00 77 1010.5
20260509050004 14 341 4.8 32.2 0.00 0.00 0.00 76 1010.6
20260509045003 14 355 0.0 38.6 0.00 0.00 0.00 76 1010.7
20260509044003 14 360 0.0 1.6 0.00 0.00 0.00 76 1010.9
20260509043215 14 0 0.0 0.0 0.00 0.00 0.00 75 1010.7
20260509042216 15 0 0.0 0.0 0.00 0.00 0.00 75 1011.0
20260509041217 15 0 0.0 0.0 0.00 0.03 0.00 73 1010.8
20260509040004 15 0 0.0 0.0 0.00 0.03 0.00 72 1010.7
20260509035003 15 338 0.0 33.8 0.00 0.03 0.00 72 1010.8
20260509034215 16 343 3.2 35.4 0.00 0.03 0.00 71 1010.8
20260509033004 16 8 3.2 32.2 0.00 0.03 0.00 69 1010.8
20260509032003 16 346 0.0 104.6 0.00 0.03 0.00 69 1010.7
20260509031003 16 353 3.2 67.6 0.00 0.03 0.00 68 1010.8
20260509030004 16 349 1.6 17.7 0.00 0.03 0.00 68 1011.0
20260509025004 16 312 1.6 27.4 0.00 0.03 0.00 67 1010.8
20260509024003 16 15 8.0 27.4 0.00 0.03 0.00 66 1010.8
20260509023004 17 357 8.0 33.8 0.00 0.03 0.00 64 1010.5
20260509022217 17 1 12.9 41.8 0.00 0.03 0.00 63 1010.6
20260509021003 17 350 19.3 43.5 0.00 0.03 0.00 62 1010.5
20260509020003 17 2 9.7 37.0 0.00 0.03 0.00 62 1010.4
20260509015215 17 3 9.7 27.4 0.00 0.03 0.00 61 1010.6
20260509014004 18 347 4.8 25.7 0.00 0.03 0.00 61 1010.8
20260509013003 18 35 1.6 25.7 0.00 0.03 0.00 61 1011.1
20260509012004 18 349 1.6 27.4 0.00 0.03 0.00 61 1010.9
20260509011003 18 334 12.9 33.8 0.00 0.03 0.00 59 1011.3
20260509010003 18 243 1.6 8.0 0.00 0.03 0.00 56 1011.2
20260509005004 18 275 1.6 11.3 0.00 0.03 0.00 57 1011.4
20260509004003 18 261 3.2 19.3 0.00 0.03 0.00 59 1011.5
20260509003003 18 222 3.2 12.9 0.00 0.03 0.00 60 1011.4
20260509002004 18 154 3.2 11.3 0.00 0.03 0.00 61 1011.9
20260509001004 18 200 3.2 6.4 0.00 0.03 0.00 62 1011.9
20260509000004 18 205 3.2 11.3 0.00 0.03 0.00 63 1012.0
20260508235216 18 204 3.2 9.7 0.00 0.03 0.00 63 1011.7
20260508234003 18 209 3.2 12.9 0.00 0.03 0.00 64 1012.0
20260508233004 17 234 6.4 14.5 0.00 0.03 0.00 65 1012.2
20260508232214 17 222 6.4 11.3 0.00 0.03 0.00 68 1012.1
20260508231004 17 197 3.2 9.7 0.00 0.03 0.00 69 1011.9
20260508230004 16 214 1.6 6.4 0.00 0.03 0.00 71 1012.0
20260508225003 16 200 4.8 16.1 0.00 0.03 0.00 72 1012.0
20260508224218 16 185 1.6 16.1 0.00 0.03 0.00 72 1012.1
20260508223003 16 187 9.7 30.6 0.00 0.03 0.00 74 1012.4
20260508222003 15 201 12.9 38.6 0.00 0.03 0.00 80 1012.2
20260508221004 15 174 12.9 38.6 0.00 0.03 0.00 81 1012.2
20260508220003 14 193 9.7 30.6 0.00 0.03 0.00 81 1012.2
20260508215003 14 202 9.7 35.4 0.00 0.03 0.00 82 1012.0
20260508214004 14 194 11.3 53.1 0.00 0.03 0.00 82 1011.5
20260508213004 14 203 16.1 57.9 0.00 0.03 0.00 82 1011.7
20260508212003 14 191 12.9 57.9 0.00 0.03 0.00 82 1011.6
20260508211216 13 179 16.1 62.8 0.00 0.03 0.00 82 1011.9
20260508210004 13 195 12.9 30.6 0.00 0.03 0.00 83 1011.9
20260508205003 13 198 8.0 43.5 0.00 0.03 0.00 83 1011.4
20260508204003 13 194 12.9 37.0 0.00 0.03 0.00 83 1011.5
20260508203215 13 195 8.0 33.8 0.00 0.03 0.00 82 1011.4
20260508202003 13 173 19.3 61.2 0.00 0.03 0.00 82 1011.2
20260508201003 13 190 16.1 37.0 0.00 0.03 0.00 82 1010.9
20260508200004 13 181 8.0 37.0 0.00 0.03 0.00 82 1010.9
20260508195003 13 180 12.9 33.8 0.00 0.03 0.00 83 1010.4
20260508194003 13 147 12.9 43.5 0.00 0.03 0.00 82 1010.3
20260508193004 13 190 17.7 43.5 0.00 0.03 0.00 82 1010.1
20260508192003 13 176 12.9 67.6 0.00 0.03 0.00 82 1009.8
20260508191003 13 187 14.5 53.1 0.00 0.03 0.00 82 1009.5
20260508190004 13 193 22.5 66.0 0.00 0.03 0.00 81 1009.2
20260508185003 13 189 20.9 53.1 0.00 0.03 0.00 80 1008.8
20260508184215 13 172 14.5 138.4 0.00 0.03 0.00 79 1008.8
20260508183003 13 172 27.4 122.3 0.00 0.03 0.00 77 1008.5
20260508182004 13 184 49.9 122.3 0.00 0.03 0.00 75 1008.4
20260508181003 13 178 33.8 86.9 0.00 0.03 0.00 74 1008.1
20260508180004 13 185 33.8 99.8 0.00 0.03 0.00 72 1007.9
20260508175215 13 178 16.1 74.0 0.00 0.03 0.00 70 1007.8
20260508174003 13 209 24.1 54.7 0.00 0.03 0.00 65 1007.4
20260508173004 13 219 17.7 43.5 0.00 0.03 0.00 65 1006.8
20260508172218 13 179 8.0 40.2 0.00 0.03 0.00 63 1006.5
20260508171003 14 216 12.9 25.7 0.00 0.03 0.00 63 1006.3
20260508170003 15 212 0.0 49.9 0.00 0.03 0.00 63 1005.8
20260508165004 15 248 4.8 37.0 0.00 0.03 0.00 62 1006.2
20260508164003 15 234 12.9 37.0 0.00 0.03 0.00 64 1005.9
20260508163004 14 278 3.2 99.8 0.00 0.03 0.00 65 1005.8